Location: Aalsum
(53.3404°N, 6.0062°E)
Time: 10:06:34
(UTC+00:00)

Cosmos 1655 Rocket - Pass Details

Date: 28 January 2023
Orbit: 970 x 1006 km, 83.0° (Epoch: 19 March)

Event Time Altitude Azimuth Distance (km) Brightness Sun altitude
Rises 17:59:34 0° 348° (NNW) 3,715 7.1 -16.0°
Reaches altitude 10° 18:02:06 10° 348° (NNW) 2,757 6.4 -16.4°
Maximum altitude 18:08:25 80° 263° (W) 1,000 4.1 -17.3°
Drops below altitude 10° 18:14:39 10° 177° (S) 2,716 6.4 -18.2°
Sets 18:17:08 0° 176° (S) 3,656 7.0 -18.6°
